Skip Page Navigation
NASA JPL Caltech
NASA Logo - Jet Propulsion Laboratory + View the NASA Portal
+ Center for Near-Earth Object Studies
JPL Home Earth Solar System Stars & Galaxies Technology
JPL Solar System Dynamics
BODIES ORBITS EPHEMERIDES TOOLS PHYSICAL DATA DISCOVERY FAQ SITE MAP
JPL Small-Body Database Browser
Search: [ help ]  
277621 (2006 BZ23)
Classification: Main-belt Asteroid          SPK-ID: 2277621
Ephemeris | Orbit Diagram | Orbital Elements | Mission Design | Physical Parameters | Discovery Circumstances ]

[ show orbit diagram ]
Orbital Elements at Epoch 2459000.5 (2020-May-31.0) TDB
Reference: JPL 16 (heliocentric ecliptic J2000)
 Element Value Uncertainty (1-sigma)   Units 
e .1033257245899297 5.6567e-08  
a 2.753109273242276 2.2407e-08 au
q 2.468642262709263 1.522e-07 au
i 11.29006959714162 6.4011e-06 deg
node 319.2268309123351 2.2921e-05 deg
peri 176.0784174974046 3.47e-05 deg
M 56.4133638772512 2.5161e-05 deg
tp 2458739.035279881255
(2019-Sep-12.53527988)
0.00011564 TDB
period 1668.528390676331
4.57
2.037e-05
5.577e-08
d
yr
n .2157589897850498 2.6341e-09 deg/d
Q 3.037576283775289 2.4723e-08 au
  Orbit Determination Parameters
   # obs. used (total)      436  
   data-arc span      7070 days (19.36 yr)  
   first obs. used      2000-12-19  
   last obs. used      2020-04-28  
   planetary ephem.      DE431  
   SB-pert. ephem.      SB431-N16  
   condition code      0  
   norm. resid. RMS      .61191  
   source      ORB  
   producer      Otto Matic  
   solution date      2020-May-21 16:27:32  

Additional Information
 Earth MOID = 1.48258 au 
 Jupiter MOID = 2.00053 au 
 T_jup = 3.309 
[ show covariance matrix ]

Ephemeris | Orbit Diagram | Orbital Elements | Mission Design | Physical Parameters | Discovery Circumstances ]

Physical Parameter Table
Parameter Symbol Value Units Sigma Reference Notes
absolute magnitude H 15.7   n/a MPO427524  

277621 (2006 BZ23)          Discovered 2006-Jan-23 by CSS at Catalina
Reference: 20110517/Numbers.arcLast Updated: 2011-05-20
Ephemeris | Orbit Diagram | Orbital Elements | Mission Design | Physical Parameters | Discovery Circumstances ]
ABOUT SSD CREDITS/AWARDS PRIVACY/COPYRIGHT GLOSSARY LINKS
FirstGov 2020-Aug-12 13:33 UT
(server date/time)  
NASA Home Page
Site Manager:   Ryan S. Park
Webmaster  Alan B. Chamberlin